KQ4NAL Weather Reports


time (UTC)temp
C
wind
direction
speed
KPH
gust
KPH
rain 1hr
cm
rain 24hr
cm
rain mn
cm
humidity
%
barometer
mb
20260503190146 17 244 8.0 9.7 0.00 0.00 0.00 38 1017.8
20260503185643 17 322 8.0 14.5 0.00 0.00 0.00 43 1018.3
20260503185138 16 218 3.2 4.8 0.00 0.00 0.00 42 1018.2
20260503184633 16 144 8.0 11.3 0.00 0.00 0.00 36 1018.5
20260503184130 16 23 3.2 4.8 0.00 0.00 0.00 37 1018.3
20260503183626 16 14 8.0 11.3 0.00 0.00 0.00 36 1018.7
20260503183124 16 196 11.3 12.9 0.00 0.00 0.00 41 1018.7
20260503182622 15 202 11.3 12.9 0.00 0.00 0.00 42 1018.4
20260503182120 16 230 14.5 17.7 0.00 0.00 0.00 38 1018.7
20260503181617 16 25 9.7 12.9 0.00 0.00 0.00 41 1018.7
20260503181113 15 177 4.8 8.0 0.00 0.00 0.00 39 1018.7
20260503180610 16 181 11.3 20.9 0.00 0.00 0.00 44 1019.0
20260503180109 15 321 8.0 11.3 0.00 0.00 0.00 39 1019.0
20260503175605 16 180 14.5 16.1 0.00 0.00 0.00 41 1018.9
20260503175102 16 232 4.8 4.8 0.00 0.00 0.00 35 1018.7
20260503174559 15 218 6.4 11.3 0.00 0.00 0.00 43 1019.2
20260503174055 16 222 11.3 16.1 0.00 0.00 0.00 41 1019.2
20260503173550 16 4 1.6 3.2 0.00 0.00 0.00 47 1019.2
20260503173047 16 24 8.0 14.5 0.00 0.00 0.00 39 1019.3
20260503172545 15 186 8.0 11.3 0.00 0.00 0.00 40 1019.6
20260503172042 16 330 4.8 9.7 0.00 0.00 0.00 42 1019.7
20260503171538 15 276 8.0 11.3 0.00 0.00 0.00 39 1019.6
20260503171036 16 15 4.8 8.0 0.00 0.00 0.00 43 1019.8
20260503170532 15 212 12.9 14.5 0.00 0.00 0.00 42 1019.8
20260503150924 13 213 4.8 9.7 0.00 0.00 0.00 47 1021.2
20260503150421 13 354 3.2 4.8 0.00 0.00 0.00 48 1021.1
20260503131314 8 319 1.6 3.2 0.00 0.00 0.00 68 1021.3
20260503130812 8 170 4.8 4.8 0.00 0.00 0.00 70 1021.4
20260503130309 7 324 3.2 4.8 0.00 0.00 0.00 71 1021.3
20260503110702 -2 1 0.0 0.0 0.00 0.00 0.00 99 1020.4
20260503110200 -2 1 0.0 0.0 0.00 0.00 0.00 99 1020.5
20260503100126 -2 2 0.0 0.0 0.00 0.00 0.00 99 1020.0
20260503081516 -2 0 0.0 0.0 0.00 0.00 0.00 98 1019.8
20260503081013 -2 0 0.0 0.0 0.00 0.00 0.00 98 1019.8
20260503080509 -2 0 0.0 0.0 0.00 0.00 0.00 98 1020.0
20260503072443 -2 0 0.0 0.0 0.00 0.00 0.00 98 1019.5
20260503071940 -2 0 0.0 0.0 0.00 0.00 0.00 97 1019.6
20260503071436 -2 0 0.0 0.0 0.00 0.00 0.00 97 1019.7
20260503070932 -1 0 0.0 0.0 0.00 0.00 0.00 97 1019.8
20260503070430 -1 0 0.0 0.0 0.00 0.00 0.00 97 1019.9
20260503054838 0 0 0.0 0.0 0.00 0.00 0.00 96 1020.1
20260503054333 0 0 0.0 0.0 0.00 0.00 0.00 95 1020.0
20260503053831 -1 0 0.0 0.0 0.00 0.00 0.00 95 1019.9
20260503053330 -1 0 0.0 0.0 0.00 0.00 0.00 95 1020.0
20260503052825 0 0 0.0 0.0 0.00 0.00 0.00 95 1020.0
20260503052322 0 0 0.0 0.0 0.00 0.00 0.00 95 1020.0
20260503051819 0 0 0.0 0.0 0.00 0.00 0.00 95 1020.2
20260503051315 0 0 0.0 0.0 0.00 0.00 0.00 95 1020.1
20260503050812 0 0 0.0 0.0 0.00 0.00 0.00 94 1020.1
20260503050308 0 0 0.0 0.0 0.00 0.00 0.00 94 1020.3
20260503045806 0 359 0.0 0.0 0.00 0.00 0.00 93 1019.9
20260503045305 0 359 0.0 0.0 0.00 0.00 0.00 93 1020.3
20260503044800 0 359 0.0 0.0 0.00 0.00 0.00 93 1020.2
20260503044257 0 359 0.0 0.0 0.00 0.00 0.00 93 1020.1
20260503043754 0 0 0.0 0.0 0.00 0.00 0.00 93 1019.9
20260503043251 0 359 0.0 0.0 0.00 0.00 0.00 92 1020.1
20260503042746 0 359 0.0 0.0 0.00 0.00 0.00 92 1020.2
20260503042243 0 359 0.0 0.0 0.00 0.00 0.00 91 1020.0
20260503041739 0 359 0.0 0.0 0.00 0.00 0.00 91 1020.0
20260503041237 0 359 0.0 0.0 0.00 0.00 0.00 91 1020.0
20260503040735 0 359 0.0 0.0 0.00 0.00 0.00 90 1020.1
20260503040232 1 359 0.0 0.0 0.00 0.00 0.00 90 1020.1
20260503035729 1 359 0.0 0.0 0.00 0.00 0.00 89 1020.3
20260503035227 1 358 0.0 0.0 0.00 0.00 0.00 89 1020.3
20260503034724 0 358 0.0 0.0 0.00 0.00 0.00 87 1020.0
20260503034221 1 358 0.0 0.0 0.00 0.00 0.00 87 1020.2
20260503033718 1 358 0.0 0.0 0.00 0.00 0.00 86 1020.2
20260503033215 2 358 0.0 0.0 0.00 0.00 0.00 86 1020.3
20260503032714 2 2 0.0 0.0 0.00 0.00 0.00 86 1020.2
20260503032212 2 358 0.0 0.0 0.00 0.00 0.00 84 1020.4
20260503031709 2 358 0.0 0.0 0.00 0.00 0.00 83 1020.3
20260503031208 2 358 0.0 0.0 0.00 0.00 0.00 81 1020.1
20260503030702 2 358 0.0 0.0 0.00 0.00 0.00 80 1020.1
20260503030159 2 358 0.0 0.0 0.00 0.00 0.00 79 1020.0
20260503025656 2 358 0.0 0.0 0.00 0.00 0.00 78 1020.0
20260503025154 3 358 0.0 0.0 0.00 0.00 0.00 78 1020.2
20260503024650 3 358 0.0 0.0 0.00 0.00 0.00 78 1020.0
20260503024148 3 358 0.0 0.0 0.00 0.00 0.00 77 1020.0
20260503023644 3 358 0.0 0.0 0.00 0.00 0.00 76 1020.3
20260503023141 3 358 0.0 0.0 0.00 0.00 0.00 76 1019.7
20260503022637 3 358 0.0 0.0 0.00 0.00 0.00 75 1019.8
20260503022132 3 358 0.0 0.0 0.00 0.00 0.00 74 1019.9
20260503021629 3 358 0.0 0.0 0.00 0.00 0.00 73 1019.7
20260503021126 4 358 0.0 0.0 0.00 0.00 0.00 72 1019.8
20260503020623 5 358 0.0 0.0 0.00 0.00 0.00 71 1019.7
20260503020120 5 357 0.0 0.0 0.00 0.00 0.00 69 1019.7
20260503015616 6 353 0.0 1.6 0.00 0.00 0.00 66 1019.6
20260503015113 6 10 3.2 3.2 0.00 0.00 0.00 65 1019.4
20260503014610 6 6 4.8 4.8 0.00 0.00 0.00 64 1019.5
20260503014108 6 8 1.6 1.6 0.00 0.00 0.00 65 1019.4
20260503013605 6 359 1.6 1.6 0.00 0.00 0.00 64 1019.4
20260503013103 6 358 3.2 3.2 0.00 0.00 0.00 64 1019.2
20260503012600 6 0 0.0 1.6 0.00 0.00 0.00 64 1019.5
20260503012056 6 4 1.6 1.6 0.00 0.00 0.00 64 1019.3
20260503011553 6 345 1.6 1.6 0.00 0.00 0.00 63 1019.1
20260503011050 6 358 0.0 0.0 0.00 0.00 0.00 64 1019.2
20260503010546 6 4 1.6 3.2 0.00 0.00 0.00 63 1018.9
20260503010044 6 355 1.6 1.6 0.00 0.00 0.00 65 1018.9
20260503005541 6 2 0.0 0.0 0.00 0.00 0.00 65 1018.9
20260503005038 6 358 0.0 0.0 0.00 0.00 0.00 63 1018.7
20260503004534 7 1 0.0 0.0 0.00 0.00 0.00 61 1018.9
20260503004033 7 358 0.0 0.0 0.00 0.00 0.00 58 1018.7
20260503003528 8 353 0.0 0.0 0.00 0.00 0.00 56 1018.7
20260503003026 8 347 1.6 1.6 0.00 0.00 0.00 54 1018.5
20260503002523 8 1 1.6 1.6 0.00 0.00 0.00 52 1018.4
20260503002020 8 352 3.2 4.8 0.00 0.00 0.00 52 1018.4
20260503001516 9 6 1.6 3.2 0.00 0.00 0.00 50 1018.2
20260503001014 10 317 3.2 3.2 0.00 0.00 0.00 50 1018.4
20260503000511 10 1 4.8 8.0 0.00 0.00 0.00 49 1018.2
20260503000007 10 342 1.6 1.6 0.00 0.00 0.00 49 1018.4
20260502235503 10 332 4.8 8.0 0.00 0.00 0.00 47 1018.2
20260502235001 10 353 4.8 8.0 0.00 0.00 0.00 47 1018.2
20260502234457 10 13 3.2 3.2 0.00 0.00 0.00 47 1018.1
20260502233955 10 17 4.8 8.0 0.00 0.00 0.00 47 1018.1
20260502233450 10 358 1.6 1.6 0.00 0.00 0.00 46 1018.0
20260502232947 10 333 6.4 8.0 0.00 0.00 0.00 45 1018.1
20260502232443 10 7 4.8 11.3 0.00 0.00 0.00 46 1018.0
20260502231940 11 329 6.4 9.7 0.00 0.00 0.00 45 1018.2
20260502231437 11 327 6.4 8.0 0.00 0.00 0.00 45 1018.2
20260502230936 11 337 3.2 3.2 0.00 0.00 0.00 44 1018.1
20260502230433 11 357 0.0 0.0 0.00 0.00 0.00 46 1017.9
20260502225931 11 350 4.8 4.8 0.00 0.00 0.00 45 1018.0
20260502225427 11 293 1.6 3.2 0.00 0.00 0.00 45 1018.1
20260502224924 11 332 8.0 12.9 0.00 0.00 0.00 45 1018.1
20260502224420 11 322 4.8 4.8 0.00 0.00 0.00 46 1018.1
20260502223917 11 346 3.2 4.8 0.00 0.00 0.00 45 1017.8
20260502223415 12 296 9.7 11.3 0.00 0.00 0.00 42 1017.9
20260502222914 12 341 16.1 17.7 0.00 0.00 0.00 42 1017.8
20260502222410 12 347 3.2 3.2 0.00 0.00 0.00 43 1018.0
20260502221910 12 341 6.4 8.0 0.00 0.00 0.00 42 1017.8
20260502221408 11 2 4.8 8.0 0.00 0.00 0.00 43 1017.6
20260502220905 11 300 4.8 8.0 0.00 0.00 0.00 43 1017.8
20260502220400 11 8 3.2 3.2 0.00 0.00 0.00 42 1017.7
20260502215857 11 315 3.2 3.2 0.00 0.00 0.00 42 1017.7
20260502215355 11 342 0.0 1.6 0.00 0.00 0.00 41 1017.7
20260502214851 12 320 9.7 14.5 0.00 0.00 0.00 39 1017.7
20260502214348 13 282 4.8 4.8 0.00 0.00 0.00 39 1017.8
20260502213845 13 318 6.4 8.0 0.00 0.00 0.00 41 1017.6
20260502213342 12 240 9.7 14.5 0.00 0.00 0.00 41 1017.3
20260502212841 12 7 4.8 8.0 0.00 0.00 0.00 42 1017.4
20260502212339 12 318 11.3 14.5 0.00 0.00 0.00 41 1017.4
20260502211836 12 306 8.0 9.7 0.00 0.00 0.00 41 1017.4
20260502211331 13 354 3.2 3.2 0.00 0.00 0.00 43 1017.3
20260502210829 13 283 8.0 9.7 0.00 0.00 0.00 38 1017.4
20260502210326 12 16 8.0 11.3 0.00 0.00 0.00 41 1017.4
20260502205823 12 354 4.8 8.0 0.00 0.00 0.00 43 1017.3
20260502205319 11 325 8.0 11.3 0.00 0.00 0.00 43 1017.6
20260502204817 11 334 9.7 11.3 0.00 0.00 0.00 43 1017.3
20260502204314 13 339 11.3 12.9 0.00 0.00 0.00 39 1017.6
20260502203811 12 103 4.8 4.8 0.00 0.00 0.00 42 1017.7
20260502203309 11 289 4.8 8.0 0.00 0.00 0.00 44 1017.6
20260502202808 12 26 12.9 17.7 0.00 0.00 0.00 44 1017.7
20260502202307 11 9 6.4 9.7 0.00 0.00 0.00 44 1017.8
20260502201804 11 10 8.0 12.9 0.00 0.00 0.00 44 1017.8
20260502201300 11 30 8.0 11.3 0.00 0.00 0.00 43 1017.8
20260502200756 12 331 6.4 11.3 0.00 0.00 0.00 45 1017.8
20260502200252 12 268 9.7 12.9 0.00 0.00 0.00 43 1018.0
20260502195751 11 352 9.7 12.9 0.00 0.00 0.00 43 1018.0
20260502195247 12 347 9.7 11.3 0.00 0.00 0.00 41 1018.0
20260502194744 12 1 1.6 1.6 0.00 0.00 0.00 47 1018.1
20260502194241 12 2 1.6 3.2 0.00 0.00 0.00 48 1018.0
20260502193736 12 4 8.0 11.3 0.00 0.00 0.00 45 1017.9
20260502193234 11 347 8.0 9.7 0.00 0.00 0.00 46 1017.9
20260502192734 12 313 9.7 14.5 0.00 0.00 0.00 43 1017.7
20260502192232 12 342 8.0 11.3 0.00 0.00 0.00 42 1018.2
20260502191729 12 277 3.2 3.2 0.00 0.00 0.00 45 1017.9
20260502191226 12 316 11.3 14.5 0.00 0.00 0.00 42 1017.9
20260502190723 12 323 9.7 14.5 0.00 0.00 0.00 44 1018.0